This is the latest recevied weather packets stored in our database for station/object KB2AHZ. If no packets are shown the sender has not sent any weather packets the latest 10 day(s).
| Time | Temp. | Humidity | Pressure | Rain* | Wind** | Luminosity | Snow |
|---|---|---|---|---|---|---|---|
| 1778000564 | 26.67° C | 40% | 1016 hPa | 0 mm | - | 923 W/m² | - |
| 1777999955 | 26.67° C | 39% | 1015.9 hPa | 0 mm | - | 939 W/m² | - |
| 1777999650 | 26.67° C | 40% | 1016.1 hPa | 0 mm | - | 936 W/m² | - |
| 1777999348 | 26.11° C | 39% | 1015.8 hPa | 0 mm | - | 938 W/m² | - |
| 1777999046 | 26.67° C | 40% | 1015.9 hPa | 0 mm | - | 935 W/m² | - |
| 1777998744 | 25.56° C | 40% | 1015.9 hPa | 0 mm | - | 930 W/m² | - |
| 1777998441 | 26.11° C | 42% | 1016 hPa | 0 mm | - | 928 W/m² | - |
| 1777998138 | 26.11° C | 44% | 1016.3 hPa | 0 mm | - | 925 W/m² | - |
| 1777997835 | 25.56° C | 43% | 1016 hPa | 0 mm | - | 918 W/m² | - |
| 1777997533 | 25.56° C | 45% | 1016.2 hPa | 0 mm | - | 916 W/m² | - |
| 1777997230 | 25.56° C | 44% | 1016.3 hPa | 0 mm | - | 908 W/m² | - |
| 1777996928 | 26.11° C | 44% | 1016.5 hPa | 0 mm | - | 901 W/m² | - |
| 1777996624 | 25.56° C | 45% | 1016.3 hPa | 0 mm | - | 897 W/m² | - |
| 1777996320 | 25.56° C | 47% | 1016.5 hPa | 0 mm | - | 890 W/m² | - |
| 1777996016 | 25° C | 48% | 1016.3 hPa | 0 mm | - | 885 W/m² | - |
| 1777995712 | 25° C | 48% | 1016.5 hPa | 0 mm | - | 875 W/m² | - |
| 1777995409 | 24.44° C | 49% | 1016.7 hPa | 0 mm | - | 867 W/m² | - |
| 1777995107 | 25° C | 48% | 1016.6 hPa | 0 mm | - | 857 W/m² | - |
| 1777994803 | 25° C | 49% | 1016.9 hPa | 0 mm | - | 848 W/m² | - |
| 1777994499 | 24.44° C | 50% | 1016.8 hPa | 0 mm | - | 839 W/m² | - |
| 1777994195 | 24.44° C | 52% | 1016.7 hPa | 0 mm | - | 829 W/m² | - |
| 1777993892 | 23.89° C | 53% | 1016.8 hPa | 0 mm | - | 819 W/m² | - |
| 1777993588 | 23.89° C | 53% | 1016.9 hPa | 0 mm | - | 809 W/m² | - |
| 1777993286 | 23.33° C | 53% | 1016.8 hPa | 0 mm | - | 796 W/m² | - |
| 1777992981 | 22.78° C | 54% | 1016.8 hPa | 0 mm | - | 785 W/m² | - |
* Rain latest hour (hover to see other rain measurements)
** Current wind speed in m/s (hover to see current wind gust speed)